Location: Pensacola
(30.4142°N, 87.2155°W)
Time: 17:33:22
(UTC-06:00)

Cosmos 1741 Rocket - Pass Details

Date: 15 December 2023
Orbit: 760 x 780 km, 74.0° (Epoch: 26 February)

Event Time Altitude Azimuth Distance (km) Brightness Sun altitude
Rises 18:47:47 0° 328° (NNW) 3,266 7.5 -24.7°
Reaches altitude 10° 18:50:30 10° 317° (NW) 2,335 6.8 -25.2°
Maximum altitude 18:54:51 26° 261° (W) 1,483 6.1 -26.1°
Drops below altitude 10° 18:59:12 10° 206° (SSW) 2,321 6.9 -27.1°
Sets 19:01:54 0° 194° (SSW) 3,243 7.6 -27.6°
